K9BM Weather Reports


time (UTC)temp
F
wind
direction
speed
knots
gust
knots
rain 1hr
in
rain 24hr
in
rain mn
in
humidity
%
barometer
mb
20260904013505 74 202 3.5 10.4 0.00 0.00 0.00 23 1002.2
20260904012505 74 234 5.2 8.7 0.00 0.00 0.00 22 1002.1
20260904012005 74 233 6.1 12.2 0.00 0.00 0.00 22 1002.0
20260904011504 75 230 6.1 13.9 0.00 0.00 0.00 22 1001.9
20260904011005 75 236 6.1 13.9 0.00 0.00 0.00 22 1001.9
20260904005505 76 231 7.8 11.3 0.00 0.00 0.00 20 1001.8
20260904005005 76 226 7.8 11.3 0.00 0.00 0.00 20 1001.7
20260904004504 76 229 5.2 11.3 0.00 0.00 0.00 20 1001.7
20260904004005 76 230 7.8 11.3 0.00 0.00 0.00 20 1001.6
20260904003505 77 233 7.8 12.2 0.00 0.00 0.00 20 1001.5
20260904003005 78 225 7.0 12.2 0.00 0.00 0.00 20 1001.5
20260904002505 78 233 6.1 11.3 0.00 0.00 0.00 19 1001.5
20260904001005 77 225 7.0 13.9 0.00 0.00 0.00 20 1001.4
20260904000005 77 238 6.1 13.0 0.00 0.00 0.00 21 1001.4
20260903235505 77 241 8.7 13.0 0.00 0.00 0.00 21 1001.4
20260903235005 77 229 8.7 13.0 0.00 0.00 0.00 21 1001.4
20260903234505 77 236 8.7 13.0 0.00 0.00 0.00 20 1001.3
20260903234005 77 230 7.8 13.0 0.00 0.00 0.00 21 1001.3
20260903233505 78 231 8.7 17.4 0.00 0.00 0.00 21 1001.3
20260903233005 78 229 7.8 17.4 0.00 0.00 0.00 21 1001.2
20260903232505 77 197 8.7 13.0 0.00 0.00 0.00 21 1001.2
20260903232005 77 233 6.1 17.4 0.00 0.00 0.00 22 1001.2
20260903231505 77 208 6.1 17.4 0.00 0.00 0.00 21 1001.3
20260903231005 78 211 11.3 17.4 0.00 0.00 0.00 21 1001.2
20260903230005 77 205 8.7 14.8 0.00 0.00 0.00 21 1001.2
20260903225505 77 226 7.8 13.9 0.00 0.00 0.00 21 1001.2
20260903225005 78 233 8.7 13.9 0.00 0.00 0.00 21 1001.2
20260903224505 78 210 8.7 20.0 0.00 0.00 0.00 21 1001.3
20260903223505 78 237 7.8 14.8 0.00 0.00 0.00 21 1001.2
20260903223005 78 203 8.7 13.0 0.00 0.00 0.00 21 1001.3
20260903222504 78 213 6.1 13.0 0.00 0.00 0.00 22 1001.3
20260903222005 79 215 7.0 15.6 0.00 0.00 0.00 21 1001.5
20260903221505 79 194 7.8 18.2 0.00 0.00 0.00 20 1001.4
20260903221005 79 181 10.4 19.1 0.00 0.00 0.00 21 1001.3
20260903220004 79 195 10.4 19.1 0.00 0.00 0.00 20 1001.3
20260903214504 77 271 5.2 11.3 0.00 0.00 0.00 24 1001.4
20260903214005 76 330 1.7 10.4 0.00 0.00 0.00 25 1001.2
20260903213505 76 271 3.5 10.4 0.00 0.00 0.00 26 1001.4
20260903213005 75 245 1.7 10.4 0.00 0.00 0.00 26 1001.3
20260903211505 75 262 7.0 11.3 0.00 0.00 0.00 26 1001.4
20260903211005 76 269 6.1 11.3 0.00 0.00 0.00 26 1001.3
20260903210005 77 283 8.7 15.6 0.00 0.00 0.00 24 1001.3
20260903205504 77 246 5.2 15.6 0.00 0.00 0.00 24 1001.3
20260903205005 75 207 2.6 10.4 0.00 0.00 0.00 26 1001.3
20260903204505 75 204 4.3 10.4 0.00 0.00 0.00 26 1001.4
20260903204005 74 253 7.0 10.4 0.00 0.00 0.00 27 1001.5
20260903203504 74 256 5.2 8.7 0.00 0.00 0.00 27 1001.6
20260903203005 73 275 5.2 8.7 0.00 0.00 0.00 27 1001.5
20260903202005 74 282 7.8 10.4 0.00 0.00 0.00 27 1001.5
20260903201504 74 252 4.3 10.4 0.00 0.00 0.00 26 1001.5
20260903201004 74 241 6.1 14.8 0.00 0.00 0.00 26 1001.5
20260903200005 74 253 8.7 13.0 0.00 0.00 0.00 27 1001.5
20260903195504 74 271 3.5 12.2 0.00 0.00 0.00 26 1001.5
20260903195005 74 237 7.0 12.2 0.00 0.00 0.00 25 1001.6
20260903194505 74 226 6.1 10.4 0.00 0.00 0.00 25 1001.4
20260903194005 75 209 1.7 7.8 0.00 0.00 0.00 25 1001.6
20260903193505 75 208 0.9 13.0 0.00 0.00 0.00 25 1001.6
20260903193004 74 212 4.3 13.0 0.00 0.00 0.00 25 1001.6
20260903192505 74 293 8.7 13.0 0.00 0.00 0.00 26 1001.7
20260903192005 74 302 6.1 10.4 0.00 0.00 0.00 26 1001.8
20260903191005 73 272 6.1 12.2 0.00 0.00 0.00 28 1001.9
20260903190005 72 310 2.6 13.0 0.00 0.00 0.00 28 1001.9
20260903185504 72 280 8.7 13.0 0.00 0.00 0.00 28 1001.9
20260903185005 73 218 1.7 8.7 0.00 0.00 0.00 26 1002.0
20260903184005 73 165 4.3 13.9 0.00 0.00 0.00 26 1001.9
20260903183504 74 166 4.3 15.6 0.00 0.00 0.00 26 1002.1
20260903182505 72 311 7.0 13.0 0.00 0.00 0.00 28 1002.0
20260903182005 72 269 8.7 13.0 0.00 0.00 0.00 28 1002.1
20260903181004 71 283 7.8 13.0 0.00 0.00 0.00 28 1002.1
20260903180004 71 295 5.2 10.4 0.00 0.00 0.00 29 1002.2
20260903175505 71 274 5.2 11.3 0.00 0.00 0.00 28 1002.2
20260903175005 70 264 2.6 13.9 0.00 0.00 0.00 29 1002.2
20260903174504 70 277 5.2 13.9 0.00 0.00 0.00 29 1002.2
20260903174005 69 299 7.8 12.2 0.00 0.00 0.00 30 1002.2
20260903173504 68 304 7.0 12.2 0.00 0.00 0.00 30 1002.3
20260903173005 68 299 7.8 11.3 0.00 0.00 0.00 30 1002.4
20260903172504 68 302 8.7 12.2 0.00 0.00 0.00 29 1002.4
20260903172005 69 298 7.8 17.4 0.00 0.00 0.00 29 1002.5
20260903171505 70 284 7.0 17.4 0.00 0.00 0.00 29 1002.5
20260903171005 69 310 7.8 13.9 0.00 0.00 0.00 29 1002.5
20260903170004 69 267 7.8 10.4 0.00 0.00 0.00 30 1002.5
20260903165505 68 291 4.3 11.3 0.00 0.00 0.00 30 1002.5
20260903165004 68 288 7.8 13.0 0.00 0.00 0.00 30 1002.4
20260903164504 68 298 7.8 13.9 0.00 0.00 0.00 30 1002.4
20260903164005 68 294 7.8 13.9 0.00 0.00 0.00 30 1002.5
20260903163505 68 308 7.8 11.3 0.00 0.00 0.00 31 1002.5
20260903163005 68 275 7.0 13.0 0.00 0.00 0.00 30 1002.5
20260903162505 68 284 7.8 13.0 0.00 0.00 0.00 31 1002.4
20260903162005 68 289 6.1 10.4 0.00 0.00 0.00 31 1002.5
20260903161505 67 283 5.2 11.3 0.00 0.00 0.00 30 1002.5
20260903161005 67 278 6.1 13.0 0.00 0.00 0.00 31 1002.5
20260903160005 67 290 7.0 13.0 0.00 0.00 0.00 31 1002.5
20260903155505 67 292 7.8 13.0 0.00 0.00 0.00 31 1002.6
20260903155005 67 270 3.5 13.0 0.00 0.00 0.00 30 1002.6
20260903154504 67 235 3.5 13.0 0.00 0.00 0.00 31 1002.6
20260903153005 66 241 1.7 6.1 0.00 0.00 0.00 33 1002.8
20260903152504 65 240 1.7 7.8 0.00 0.00 0.00 33 1002.8
20260903152005 65 277 3.5 7.8 0.00 0.00 0.00 33 1002.9
20260903151504 65 289 2.6 7.8 0.00 0.00 0.00 34 1003.0
20260903151004 65 295 4.3 10.4 0.00 0.00 0.00 34 1003.1
20260903150004 65 265 7.8 10.4 0.00 0.00 0.00 31 1003.0
20260903145505 65 250 5.2 7.8 0.00 0.00 0.00 30 1003.0
20260903145005 65 226 4.3 7.8 0.00 0.00 0.00 31 1003.1
20260903144504 65 233 5.2 7.8 0.00 0.00 0.00 31 1003.0
20260903144004 65 233 4.3 7.8 0.00 0.00 0.00 31 1003.0
20260903143504 64 219 5.2 10.4 0.00 0.00 0.00 31 1003.0
20260903143005 64 233 5.2 10.4 0.00 0.00 0.00 31 1002.9
20260903142505 64 222 4.3 10.4 0.00 0.00 0.00 31 1002.8
20260903141005 63 207 5.2 7.8 0.00 0.00 0.00 32 1002.8
20260903135509 61 234 2.6 4.3 0.00 0.00 0.00 35 1002.7
20260903135005 61 241 2.6 4.3 0.00 0.00 0.00 34 1002.7
20260903134505 61 238 1.7 2.6 0.00 0.00 0.00 33 1002.6
20260903134005 61 235 0.0 0.0 0.00 0.00 0.00 33 1002.6
20260903133505 61 235 0.0 1.7 0.00 0.00 0.00 32 1002.7
20260903132505 60 235 0.9 2.6 0.00 0.00 0.00 33 1002.4
20260903131505 61 235 2.6 5.2 0.00 0.00 0.00 32 1002.3
20260903131005 61 261 1.7 5.2 0.00 0.00 0.00 32 1002.2
20260903130005 62 282 4.3 10.4 0.00 0.00 0.00 31 1002.0
20260903125505 62 254 5.2 10.4 0.00 0.00 0.00 31 1001.9
20260903125005 63 245 7.8 10.4 0.00 0.00 0.00 32 1001.9
20260903124505 63 237 4.3 7.8 0.00 0.00 0.00 31 1001.7
20260903124004 63 231 4.3 7.8 0.00 0.00 0.00 31 1001.7
20260903123504 63 228 4.3 7.8 0.00 0.00 0.00 30 1001.6
20260903123004 63 225 4.3 7.8 0.00 0.00 0.00 30 1001.6
20260903122504 63 230 4.3 8.7 0.00 0.00 0.00 30 1001.5
20260903122004 63 225 5.2 10.4 0.00 0.00 0.00 29 1001.4
20260903121505 64 222 5.2 10.4 0.00 0.00 0.00 29 1001.5
20260903121005 64 212 4.3 8.7 0.00 0.00 0.00 28 1001.4
20260903120004 64 202 4.3 10.4 0.00 0.00 0.00 27 1001.5
20260903115504 64 216 4.3 10.4 0.00 0.00 0.00 27 1001.5
20260903115004 64 233 6.1 10.4 0.00 0.00 0.00 27 1001.4
20260903114504 64 241 6.1 12.2 0.00 0.00 0.00 27 1001.6
20260903113505 64 233 5.2 10.4 0.00 0.00 0.00 27 1001.5
20260903113005 64 234 4.3 11.3 0.00 0.00 0.00 27 1001.4
20260903112505 64 230 5.2 11.3 0.00 0.00 0.00 26 1001.4
20260903112005 63 236 6.1 10.4 0.00 0.00 0.00 26 1001.4
20260903111505 64 236 6.1 10.4 0.00 0.00 0.00 25 1001.4
20260903111005 63 230 3.5 18.2 0.00 0.00 0.00 25 1001.3
20260903110005 63 165 6.1 18.2 0.00 0.00 0.00 25 1001.2
20260903105005 62 181 0.9 4.3 0.00 0.00 0.00 25 1001.3
20260903104005 62 245 0.0 2.6 0.00 0.00 0.00 25 1001.4
20260903103504 62 245 1.7 2.6 0.00 0.00 0.00 25 1001.6
20260903103005 62 245 0.9 2.6 0.00 0.00 0.00 25 1001.5
20260903102504 61 245 1.7 2.6 0.00 0.00 0.00 25 1001.5
20260903101504 62 245 1.7 5.2 0.00 0.00 0.00 27 1001.5
20260903101004 62 241 3.5 7.8 0.00 0.00 0.00 26 1001.5
20260903100004 61 201 5.2 10.4 0.00 0.00 0.00 26 1001.4
20260903095504 61 176 6.1 10.4 0.00 0.00 0.00 26 1001.4
20260903095004 60 186 5.2 6.1 0.00 0.00 0.00 27 1001.4
20260903094504 60 182 5.2 6.1 0.00 0.00 0.00 28 1001.4
20260903094004 60 187 4.3 6.1 0.00 0.00 0.00 27 1001.4
20260903093505 60 201 4.3 6.1 0.00 0.00 0.00 27 1001.5
20260903093005 59 186 4.3 5.2 0.00 0.00 0.00 28 1001.4
20260903092505 59 183 4.3 7.0 0.00 0.00 0.00 28 1001.5
20260903092005 59 182 4.3 7.0 0.00 0.00 0.00 27 1001.4
20260903091005 59 201 3.5 5.2 0.00 0.00 0.00 28 1001.4
20260903090004 60 221 1.7 2.6 0.00 0.00 0.00 28 1001.3
20260903085504 60 233 2.6 4.3 0.00 0.00 0.00 28 1001.2
20260903085005 59 234 2.6 6.1 0.00 0.00 0.00 29 1001.1
20260903084505 59 233 3.5 7.0 0.00 0.00 0.00 29 1001.1
20260903084004 60 242 4.3 7.0 0.00 0.00 0.00 27 1001.1
20260903083504 61 221 3.5 5.2 0.00 0.00 0.00 26 1001.0
20260903083004 60 203 1.7 2.6 0.00 0.00 0.00 26 1000.9
20260903082504 60 202 1.7 2.6 0.00 0.00 0.00 26 1000.9
20260903082004 60 201 2.6 6.1 0.00 0.00 0.00 26 1001.0
20260903081505 60 201 1.7 6.1 0.00 0.00 0.00 26 1001.1
20260903081004 60 202 1.7 6.1 0.00 0.00 0.00 26 1001.1
20260903080004 61 185 1.7 7.8 0.00 0.00 0.00 26 1001.2
20260903075504 62 187 6.1 7.8 0.00 0.00 0.00 25 1001.2
20260903075004 63 205 3.5 5.2 0.00 0.00 0.00 24 1001.2
20260903074504 63 236 2.6 4.3 0.00 0.00 0.00 23 1001.2
20260903074005 63 276 0.0 0.0 0.00 0.00 0.00 23 1001.2
20260903073505 63 305 0.0 0.0 0.00 0.00 0.00 23 1001.2
20260903073005 63 310 0.0 0.0 0.00 0.00 0.00 22 1001.2
20260903072504 63 310 0.0 0.0 0.00 0.00 0.00 23 1001.1
20260903072004 63 310 0.0 0.0 0.00 0.00 0.00 22 1001.1
20260903071505 63 312 0.0 0.0 0.00 0.00 0.00 22 1001.2
20260903071005 64 312 0.0 0.0 0.00 0.00 0.00 22 1001.1
20260903070004 64 312 0.0 0.0 0.00 0.00 0.00 22 1001.1
20260903065504 64 312 0.0 0.0 0.00 0.00 0.00 23 1001.1
20260903065005 64 312 0.0 0.0 0.00 0.00 0.00 22 1001.1
20260903064505 64 312 0.0 0.0 0.00 0.00 0.00 22 1001.0
20260903064004 64 312 0.0 0.0 0.00 0.00 0.00 22 1001.0
20260903063504 64 312 0.0 0.0 0.00 0.00 0.00 22 1000.9
20260903063004 64 313 0.0 0.0 0.00 0.00 0.00 23 1000.8
20260903062005 65 339 0.0 0.9 0.00 0.00 0.00 23 1000.8
20260903061504 65 340 0.0 1.7 0.00 0.00 0.00 22 1000.7
20260903061005 65 340 0.0 2.6 0.00 0.00 0.00 21 1000.8
20260903060004 65 340 1.7 4.3 0.00 0.00 0.00 21 1000.9
20260903055504 65 241 0.0 0.0 0.00 0.00 0.00 22 1000.9
20260903055005 65 241 0.0 0.9 0.00 0.00 0.00 22 1001.1
20260903054504 65 241 0.0 1.7 0.00 0.00 0.00 21 1001.0
20260903054004 65 245 0.0 1.7 0.00 0.00 0.00 21 1001.0
20260903053504 65 245 0.0 1.7 0.00 0.00 0.00 21 1001.0
20260903053005 65 245 0.0 2.6 0.00 0.00 0.00 21 1001.0
20260903052004 64 245 1.7 2.6 0.00 0.00 0.00 22 1001.0
20260903051504 65 245 0.0 2.6 0.00 0.00 0.00 22 1001.1
20260903051004 66 244 0.0 2.6 0.00 0.00 0.00 22 1001.1
20260903050004 65 245 2.6 4.3 0.00 0.00 0.00 21 1001.0
20260903045504 66 242 2.6 6.1 0.00 0.00 0.00 21 1001.1
20260903045005 67 241 3.5 7.0 0.00 0.00 0.00 20 1001.0
20260903044004 66 246 4.3 7.0 0.00 0.00 0.00 21 1001.0
20260903043504 66 241 4.3 7.0 0.00 0.00 0.00 21 1001.1
20260903043004 66 242 4.3 7.8 0.00 0.00 0.00 21 1001.0
20260903042005 65 263 4.3 7.8 0.00 0.00 0.00 21 1001.1
20260903041504 65 269 5.2 7.8 0.00 0.00 0.00 21 1001.0
20260903041004 66 244 3.5 6.1 0.00 0.00 0.00 22 1001.0
20260903040004 66 239 3.5 5.2 0.00 0.00 0.00 21 1000.9
20260903035504 65 225 4.3 4.3 0.00 0.00 0.00 21 1001.0
20260903035004 64 201 2.6 4.3 0.00 0.00 0.00 22 1001.0
20260903034504 65 201 1.7 6.1 0.00 0.00 0.00 22 1000.9
20260903034005 66 199 3.5 6.1 0.00 0.00 0.00 21 1000.8
20260903033505 66 200 2.6 5.2 0.00 0.00 0.00 20 1000.7
20260903033004 66 200 2.6 6.1 0.00 0.00 0.00 20 1000.6
20260903032504 65 201 2.6 7.0 0.00 0.00 0.00 21 1000.6
20260903032004 66 182 6.1 8.7 0.00 0.00 0.00 21 1000.6
20260903031504 66 179 7.0 8.7 0.00 0.00 0.00 21 1000.5
20260903031004 66 178 6.1 7.0 0.00 0.00 0.00 20 1000.6
20260903025004 68 197 5.2 8.7 0.00 0.00 0.00 19 1000.6
20260903024504 69 199 5.2 8.7 0.00 0.00 0.00 19 1000.6
20260903023505 70 193 6.1 8.7 0.00 0.00 0.00 18 1000.6
20260903022004 71 208 6.1 10.4 0.00 0.00 0.00 17 1000.4
20260903021504 72 195 7.0 10.4 0.00 0.00 0.00 17 1000.3
20260903020004 73 200 9.6 17.4 0.00 0.00 0.00 15 1000.1
20260903015505 74 213 10.4 20.9 0.00 0.00 0.00 15 1000.1
20260903014504 74 208 12.2 19.1 0.00 0.00 0.00 15 999.9
20260903014004 74 197 10.4 17.4 0.00 0.00 0.00 16 999.9